EW0195 Weather Reports


Display with metric or nautical units.
time (UTC)temp
F
wind
direction
speed
MPH
gust
MPH
rain 1hr
in
rain 24hr
in
rain mn
in
humidity
%
barometer
mb
20260903070004 71 146 2.0 5.0 0.00 0.00 0.00 98 1016.9
20260903064501 71 145 2.0 4.0 0.00 0.00 0.00 98 1017.1
20260903061502 71 241 0.0 2.0 0.00 0.00 0.00 98 1017.8
20260903060004 71 330 3.0 11.0 0.00 0.00 0.00 98 1017.4
20260903054500 71 75 7.0 13.0 0.00 0.00 0.00 98 1019.3
20260903053002 71 203 2.0 5.0 0.00 0.00 0.00 98 1017.4
20260903051501 71 140 2.0 5.0 0.00 0.00 0.00 98 1017.7
20260903050004 71 188 1.0 5.0 0.00 0.00 0.00 98 1017.2
20260903044501 71 225 2.0 5.0 0.00 0.00 0.00 98 1017.4
20260903041501 72 197 1.0 5.0 0.00 0.00 0.00 98 1017.6
20260903040004 72 246 1.0 4.0 0.00 0.00 0.00 97 1017.9
20260903034500 72 206 1.0 3.0 0.00 0.00 0.00 98 1018.2
20260903033001 72 242 1.0 5.0 0.00 0.00 0.00 97 1018.4
20260903031500 72 269 1.0 5.0 0.00 0.00 0.00 97 1018.0
20260903030004 72 224 2.0 5.0 0.00 0.00 0.00 97 1018.4
20260903024501 72 229 1.0 3.0 0.00 0.00 0.00 97 1018.2
20260903021501 72 275 2.0 6.0 0.00 0.00 0.00 97 1017.8
20260903020004 72 226 1.0 5.0 0.00 0.00 0.00 97 1017.7
20260903014501 72 229 1.0 4.0 0.00 0.00 0.00 97 1018.0
20260903013000 72 161 2.0 5.0 0.00 0.00 0.00 97 1017.9
20260903010004 72 175 2.0 7.0 0.00 0.00 0.00 97 1017.8
20260903004501 72 197 2.0 7.0 0.00 0.00 0.00 97 1017.9
20260903003001 72 158 2.0 4.0 0.00 0.00 0.00 96 1017.9
20260903001502 72 202 2.0 5.0 0.00 0.00 0.00 96 1017.9
20260903000005 73 151 2.0 6.0 0.00 0.00 0.00 96 1017.7
20260902231501 73 153 1.0 3.0 0.00 0.00 0.00 95 1017.8
20260902230004 73 246 1.0 5.0 0.00 0.00 0.00 95 1017.8
20260902224500 74 212 2.0 5.0 0.00 0.00 0.00 95 1017.6
20260902221503 74 169 1.0 2.0 0.00 0.00 0.00 95 1018.2
20260902220004 74 160 1.0 3.0 0.00 0.00 0.00 95 1018.3
20260902214501 74 219 2.0 5.0 0.00 0.00 0.00 96 1018.1
20260902213001 74 162 1.0 4.0 0.00 0.00 0.00 97 1018.1
20260902211500 74 227 1.0 4.0 0.00 0.00 0.00 97 1018.1
20260902210003 73 171 2.0 6.0 0.00 0.00 0.00 97 1018.1
20260902204500 73 223 2.0 5.0 0.00 0.00 0.00 97 1018.1
20260902203000 73 110 2.0 4.0 0.00 0.00 0.00 99 1018.5
20260902201501 72 129 2.0 7.0 0.00 0.00 0.00 99 1018.5
20260902200004 72 123 3.0 6.0 0.00 0.00 0.00 99 1018.1
20260902194500 72 146 2.0 5.0 0.00 0.00 0.00 99 1018.1
20260902193000 72 152 2.0 5.0 0.00 0.00 0.00 99 1018.3
20260902191500 71 158 2.0 5.0 0.00 0.00 0.00 99 1017.8
20260902190003 71 159 1.0 4.0 0.00 0.00 0.00 99 1018.1
20260902184501 71 144 0.0 2.0 0.00 0.00 0.00 99 1018.3
20260902183000 70 196 2.0 5.0 0.00 0.00 0.00 98 1018.3
20260902181500 70 249 2.0 8.0 0.00 0.00 0.00 98 1018.6
20260902180006 70 227 2.0 7.0 0.00 0.00 0.00 98 1018.8
20260902173001 71 345 1.0 8.0 0.00 0.00 0.00 98 1021.0
20260902171502 71 62 2.0 5.0 0.00 0.00 0.00 98 1020.8
20260902170005 71 94 2.0 5.0 0.00 0.00 0.00 98 1020.4
20260902164501 72 115 2.0 5.0 0.00 0.00 0.00 98 1020.4
20260902161500 71 135 3.0 6.0 0.00 0.00 0.00 98 1019.6
20260902160007 72 141 3.0 7.0 0.00 0.00 0.00 98 1019.7
20260902154502 71 150 3.0 8.0 0.00 0.00 0.00 98 1019.6
20260902153000 71 214 2.0 6.0 0.00 0.00 0.00 98 1019.5
20260902151500 71 184 3.0 7.0 0.00 0.00 0.00 98 1019.7
20260902144501 71 193 2.0 5.0 0.00 0.00 0.00 99 1020.0
20260902141502 71 160 2.0 6.0 0.00 0.00 0.00 99 1019.8
20260902140004 70 210 3.0 8.0 0.00 0.00 0.00 99 1019.6
20260902134500 70 184 4.0 7.0 0.00 0.00 0.00 99 1019.1
20260902133000 70 150 3.0 7.0 0.00 0.00 0.00 99 1019.2
20260902131501 70 141 4.0 9.0 0.00 0.00 0.00 99 1019.1
20260902125948 70 131 3.0 9.0 0.00 0.00 0.00 99 1018.9
20260902124445 70 160 3.0 5.0 0.00 0.00 0.00 99 1019.0
20260902122946 70 217 2.0 7.0 0.00 0.00 0.00 99 1019.0
20260902121445 70 128 2.0 6.0 0.00 0.00 0.00 99 1018.8
20260902115948 70 148 3.0 6.0 0.00 0.00 0.00 99 1018.6
20260902112945 70 161 3.0 6.0 0.00 0.00 0.00 99 1018.5
20260902111445 70 157 2.0 6.0 0.00 0.00 0.00 99 1018.3
20260902105948 70 148 1.0 4.0 0.00 0.00 0.00 99 1018.4
20260902104445 70 154 1.0 3.0 0.00 0.00 0.00 99 1018.3
20260902102945 70 149 1.0 2.0 0.00 0.00 0.00 99 1018.3
20260902101445 70 154 1.0 2.0 0.00 0.00 0.00 99 1018.3
20260902095948 70 132 0.0 1.0 0.00 0.00 0.00 99 1018.2
20260902094445 70 131 0.0 1.0 0.00 0.00 0.00 99 1018.1
20260902092945 70 132 0.0 1.0 0.00 0.00 0.00 99 1018.0
20260902091446 70 132 0.0 1.0 0.00 0.00 0.00 99 1017.9
20260902084447 70 137 0.0 1.0 0.00 0.00 0.00 99 1017.8
20260902082945 70 137 0.0 1.0 0.00 0.00 0.00 99 1017.8
20260902081446 70 137 0.0 1.0 0.00 0.00 0.00 99 1017.7
20260902075949 69 137 0.0 1.0 0.00 0.00 0.00 99 1017.7
20260902074447 69 138 0.0 1.0 0.00 0.00 0.00 99 1017.4
20260902072946 69 138 0.0 1.0 0.00 0.00 0.00 99 1017.3
20260902071446 69 138 0.0 1.0 0.00 0.00 0.00 99 1017.2